DW1779 Weather Reports


time (UTC)temp
F
wind
direction
speed
knots
gust
knots
rain 1hr
in
rain 24hr
in
rain mn
in
humidity
%
barometer
mb
20260904175555 92 9 0.9 1.7 0.00 0.00 0.00 58 1016.9
20260904175055 90 355 0.0 1.7 0.00 0.00 0.00 62 1016.9
20260904174602 91 355 0.0 3.5 0.00 0.00 0.00 61 1017.0
20260904174054 93 9 0.0 3.5 0.00 0.00 0.00 58 1017.1
20260904173554 94 297 1.7 3.5 0.00 0.00 0.00 52 1016.9
20260904173115 93 342 0.9 4.3 0.00 0.00 0.00 56 1017.1
20260904172555 95 317 0.9 4.3 0.00 0.00 0.00 51 1017.2
20260904172055 94 317 0.9 3.5 0.00 0.00 0.00 52 1017.2
20260904171601 90 80 0.0 2.6 0.00 0.00 0.00 63 1017.2
20260904171053 91 195 0.0 2.6 0.00 0.00 0.00 61 1017.4
20260904170654 90 313 0.0 5.2 0.00 0.00 0.00 59 1017.5
20260904170105 93 44 0.9 5.2 0.00 0.00 0.00 52 1017.6
20260904165555 95 43 0.9 6.1 0.00 0.00 0.00 49 1017.5
20260904165056 95 267 1.7 7.8 0.00 0.00 0.00 49 1017.5
20260904164556 96 307 2.6 8.7 0.00 0.00 0.00 48 1017.6
20260904164053 95 304 0.9 6.1 0.00 0.00 0.00 51 1017.7
20260904163552 94 184 0.9 5.2 0.00 0.00 0.00 53 1017.6
20260904163051 93 215 1.7 6.1 0.00 0.00 0.00 55 1017.8
20260904162551 93 232 1.7 6.1 0.00 0.00 0.00 52 1017.7
20260904162051 94 249 1.7 7.0 0.00 0.00 0.00 51 1017.7
20260904161549 94 344 1.7 6.1 0.00 0.00 0.00 53 1017.7
20260904161048 94 168 0.9 3.5 0.00 0.00 0.00 57 1017.7
20260904160649 94 65 0.9 2.6 0.00 0.00 0.00 52 1017.6
20260904160056 93 11 0.9 7.0 0.00 0.00 0.00 58 1017.6
20260904155554 93 264 1.7 7.0 0.00 0.00 0.00 55 1017.6
20260904155054 93 329 1.7 6.1 0.00 0.00 0.00 55 1017.6
20260904154553 93 257 0.9 8.7 0.00 0.00 0.00 57 1017.7
20260904154051 93 301 2.6 8.7 0.00 0.00 0.00 56 1017.7
20260904153550 92 320 1.7 7.0 0.00 0.00 0.00 55 1017.8
20260904153056 93 15 1.7 7.0 0.00 0.00 0.00 56 1017.8
20260904152546 93 291 1.7 6.1 0.00 0.00 0.00 57 1017.8
20260904152045 92 201 0.9 7.0 0.00 0.00 0.00 58 1017.9
20260904151548 92 321 3.5 12.2 0.00 0.00 0.00 57 1017.8
20260904151043 91 298 4.3 12.2 0.00 0.00 0.00 60 1017.8
20260904150642 92 273 5.2 9.6 0.00 0.00 0.00 58 1017.8
20260904150056 91 292 3.5 7.8 0.00 0.00 0.00 60 1017.7
20260904145553 91 355 1.7 7.8 0.00 0.00 0.00 61 1017.6
20260904145052 90 63 1.7 4.3 0.00 0.00 0.00 63 1017.7
20260904144553 90 221 1.7 5.2 0.00 0.00 0.00 63 1017.6
20260904144048 89 217 1.7 5.2 0.00 0.00 0.00 64 1017.7
20260904143551 89 265 0.9 4.3 0.00 0.00 0.00 64 1017.8
20260904143046 89 289 0.9 7.8 0.00 0.00 0.00 66 1017.6
20260904142544 88 291 2.6 7.8 0.00 0.00 0.00 66 1017.6
20260904142043 88 281 1.7 4.3 0.00 0.00 0.00 67 1017.6
20260904141542 87 304 0.0 3.5 0.00 0.00 0.00 69 1017.7
20260904141040 87 250 0.9 9.6 0.00 0.00 0.00 70 1017.6
20260904140502 86 311 3.5 9.6 0.00 0.00 0.00 69 1017.6
20260904140001 85 163 1.7 6.1 0.00 0.00 0.00 72 1017.6
20260904135602 85 309 0.9 6.1 0.00 0.00 0.00 74 1017.6
20260904135058 84 291 1.7 7.8 0.00 0.00 0.00 73 1017.6
20260904134604 83 335 1.7 7.8 0.00 0.00 0.00 77 1017.6
20260904134055 81 303 0.9 2.6 0.00 0.00 0.00 81 1017.7
20260904133554 78 37 0.0 4.3 0.00 0.00 0.00 88 1017.7
20260904133053 75 181 0.9 4.3 0.00 0.00 0.00 94 1017.7
20260904132552 73 112 0.0 2.6 0.00 0.00 0.00 95 1017.8
20260904132051 73 172 0.0 0.9 0.00 0.00 0.00 95 1017.6
20260904131552 72 172 0.0 0.0 0.00 0.00 0.00 95 1017.8
20260904131050 71 172 0.0 0.0 0.00 0.00 0.00 96 1017.7
20260904130650 71 172 0.0 0.0 0.00 0.00 0.00 96 1017.7
20260904130055 70 172 0.0 0.0 0.00 0.00 0.00 96 1017.8
20260904125555 70 172 0.0 0.0 0.00 0.00 0.00 96 1017.8
20260904125056 70 172 0.0 0.0 0.00 0.00 0.00 96 1017.8
20260904124601 69 172 0.0 0.0 0.00 0.00 0.00 96 1017.8
20260904124057 69 172 0.0 0.0 0.00 0.00 0.00 96 1017.8
20260904123551 69 172 0.0 0.0 0.00 0.00 0.00 96 1017.7
20260904123050 69 172 0.0 0.9 0.00 0.00 0.00 96 1017.6
20260904122550 68 172 0.0 0.9 0.00 0.00 0.00 96 1017.6
20260904122049 68 172 0.0 0.0 0.00 0.00 0.00 96 1017.6
20260904121548 68 172 0.0 0.0 0.00 0.00 0.00 96 1017.5
20260904121047 68 172 0.0 0.0 0.00 0.00 0.00 96 1017.6
20260904120647 68 172 0.0 0.9 0.00 0.00 0.00 96 1017.4
20260904120054 68 172 0.0 0.9 0.00 0.00 0.00 96 1017.5
20260904115548 68 172 0.0 0.9 0.00 0.00 0.00 96 1017.4
20260904115047 68 173 0.0 0.0 0.00 0.00 0.00 96 1017.4
20260904114547 68 173 0.0 0.0 0.00 0.00 0.00 96 1017.3
20260904114046 68 173 0.0 0.0 0.00 0.00 0.00 96 1017.3
20260904113545 68 173 0.0 0.9 0.00 0.00 0.00 96 1017.2
20260904113050 68 173 0.0 0.9 0.00 0.00 0.00 96 1017.1
20260904112544 68 173 0.0 0.9 0.00 0.00 0.00 96 1017.0
20260904112049 68 173 0.0 0.9 0.00 0.00 0.00 96 1016.9
20260904111544 68 173 0.0 0.9 0.00 0.00 0.00 96 1016.9
20260904111044 68 173 0.0 0.0 0.00 0.00 0.00 96 1016.9
20260904110645 68 173 0.0 0.0 0.00 0.00 0.00 96 1016.8
20260904110049 68 173 0.0 0.0 0.00 0.00 0.00 96 1017.0
20260904105548 68 173 0.0 0.9 0.00 0.00 0.00 96 1016.8
20260904105048 68 173 0.0 0.9 0.00 0.00 0.00 96 1017.0
20260904104547 68 173 0.0 0.9 0.00 0.00 0.00 96 1017.0
20260904104048 68 173 0.0 0.9 0.00 0.00 0.00 96 1017.0
20260904103546 68 173 0.0 0.9 0.00 0.00 0.00 96 1017.0
20260904103046 68 173 0.0 0.0 0.00 0.00 0.00 95 1016.9
20260904102545 69 173 0.0 0.0 0.00 0.00 0.00 96 1016.7
20260904102042 68 173 0.0 0.0 0.00 0.00 0.00 96 1016.8
20260904101543 69 173 0.0 0.9 0.00 0.00 0.00 96 1016.8
20260904101044 69 173 0.0 0.9 0.00 0.00 0.00 96 1016.8
20260904100515 68 173 0.0 0.9 0.00 0.00 0.00 96 1016.7
20260904100009 68 173 0.0 0.0 0.00 0.00 0.00 96 1016.6
20260904095508 69 173 0.0 0.0 0.00 0.00 0.00 96 1016.7
20260904095009 69 173 0.0 0.0 0.00 0.00 0.00 96 1016.5
20260904094507 69 173 0.0 0.9 0.00 0.00 0.00 96 1016.4
20260904094003 69 173 0.0 0.9 0.00 0.00 0.00 96 1016.4
20260904093503 68 173 0.0 0.0 0.00 0.00 0.00 96 1016.5
20260904093001 69 173 0.0 0.0 0.00 0.00 0.00 96 1016.6
20260904092559 69 173 0.0 0.0 0.00 0.00 0.00 95 1016.5
20260904092058 69 173 0.0 0.0 0.00 0.00 0.00 95 1016.3
20260904091557 69 173 0.0 0.0 0.00 0.00 0.00 95 1016.2
20260904091056 69 173 0.0 0.0 0.00 0.00 0.00 95 1016.3
20260904090657 69 173 0.0 0.0 0.00 0.00 0.00 95 1016.3
20260904090058 69 173 0.0 0.0 0.00 0.00 0.00 95 1016.2
20260904085557 69 173 0.0 0.0 0.00 0.00 0.00 95 1016.1
20260904085056 69 173 0.0 0.0 0.00 0.00 0.00 95 1016.1
20260904084555 69 173 0.0 0.0 0.00 0.00 0.00 95 1016.0
20260904084055 69 173 0.0 0.0 0.00 0.00 0.00 94 1016.0
20260904083558 70 173 0.0 0.0 0.00 0.00 0.00 95 1015.9
20260904083056 70 173 0.0 0.9 0.00 0.00 0.00 94 1015.8
20260904082553 70 173 0.0 0.9 0.00 0.00 0.00 94 1015.8
20260904082052 70 173 0.0 0.0 0.00 0.00 0.00 94 1015.8
20260904081622 70 173 0.0 0.0 0.00 0.00 0.00 94 1015.8
20260904081052 70 173 0.0 0.0 0.00 0.00 0.00 94 1015.7
20260904080654 70 173 0.0 0.0 0.00 0.00 0.00 94 1015.7
20260904080056 70 173 0.0 0.0 0.00 0.00 0.00 93 1015.6
20260904075553 70 173 0.0 0.0 0.00 0.00 0.00 93 1015.7
20260904075053 71 173 0.0 0.0 0.00 0.00 0.00 93 1015.8
20260904074607 71 173 0.0 0.0 0.00 0.00 0.00 93 1015.8
20260904074053 71 173 0.0 0.0 0.00 0.00 0.00 93 1015.6
20260904073553 71 173 0.0 0.0 0.00 0.00 0.00 93 1015.6
20260904073104 71 173 0.0 0.0 0.00 0.00 0.00 93 1015.7
20260904072552 71 173 0.0 0.0 0.00 0.00 0.00 92 1015.7
20260904072050 71 173 0.0 0.0 0.00 0.00 0.00 92 1015.7
20260904071550 71 173 0.0 0.0 0.00 0.00 0.00 92 1015.7
20260904071049 71 173 0.0 0.0 0.00 0.00 0.00 92 1015.8
20260904070649 72 173 0.0 0.0 0.00 0.00 0.00 92 1015.8
20260904070105 72 173 0.0 0.0 0.00 0.00 0.00 91 1015.9
20260904065549 72 173 0.0 0.0 0.00 0.00 0.00 91 1016.0
20260904065047 72 173 0.0 0.0 0.00 0.00 0.00 91 1016.0
20260904064547 72 173 0.0 0.0 0.00 0.00 0.00 91 1016.0
20260904064047 72 173 0.0 0.0 0.00 0.00 0.00 91 1015.9
20260904063547 72 173 0.0 0.0 0.00 0.00 0.00 90 1015.8
20260904063053 73 173 0.0 0.0 0.00 0.00 0.00 90 1015.9
20260904062545 73 173 0.0 0.0 0.00 0.00 0.00 90 1016.0
20260904062045 73 173 0.0 0.0 0.00 0.00 0.00 90 1015.8
20260904061545 73 173 0.0 0.0 0.00 0.00 0.00 89 1015.9
20260904061045 73 173 0.0 0.0 0.00 0.00 0.00 90 1016.0
20260904060645 73 173 0.0 0.0 0.00 0.00 0.00 90 1016.0
20260904060048 73 173 0.0 0.0 0.00 0.00 0.00 90 1015.9
20260904055547 73 173 0.0 0.0 0.00 0.00 0.00 89 1015.9
20260904055050 73 173 0.0 0.0 0.00 0.00 0.00 89 1015.8
20260904054549 73 173 0.0 0.0 0.00 0.00 0.00 88 1015.9
20260904054046 74 173 0.0 0.0 0.00 0.00 0.00 88 1016.0
20260904053544 74 173 0.0 0.0 0.00 0.00 0.00 88 1016.0
20260904053144 74 173 0.0 0.9 0.00 0.00 0.00 87 1016.0
20260904052543 74 173 0.0 0.9 0.00 0.00 0.00 88 1016.0
20260904052044 74 169 0.0 0.0 0.00 0.00 0.00 88 1016.1
20260904051543 74 169 0.0 0.0 0.00 0.00 0.00 88 1016.0
20260904051042 74 169 0.0 0.0 0.00 0.00 0.00 88 1016.0
20260904050642 74 169 0.0 0.0 0.00 0.00 0.00 88 1016.1
20260904050059 74 169 0.0 0.0 0.00 0.00 0.00 88 1016.0
20260904045558 74 169 0.0 0.0 0.00 0.00 0.00 88 1015.9
20260904045058 75 169 0.0 1.7 0.00 0.00 0.00 87 1015.9
20260904044558 75 169 0.0 2.6 0.00 0.00 0.00 87 1015.9
20260904044100 75 182 0.0 2.6 0.00 0.00 0.00 87 1015.9
20260904043557 75 173 0.0 1.7 0.00 0.00 0.00 87 1015.8
20260904043115 75 148 0.0 4.3 0.00 0.00 0.00 87 1015.9
20260904042557 76 173 0.9 4.3 0.00 0.00 0.00 85 1015.9
20260904042100 76 160 0.0 1.7 0.00 0.00 0.00 84 1015.9
20260904041602 76 201 0.0 0.9 0.00 0.00 0.00 84 1015.8
20260904041056 76 201 0.0 0.9 0.00 0.00 0.00 83 1015.8
20260904040657 77 201 0.0 0.0 0.00 0.00 0.00 83 1015.8
20260904040054 77 201 0.0 0.0 0.00 0.00 0.00 81 1015.8
20260904035553 78 201 0.0 0.9 0.00 0.00 0.00 80 1015.8
20260904035052 78 201 0.0 1.7 0.00 0.00 0.00 79 1015.8
20260904034554 78 128 0.0 5.2 0.00 0.00 0.00 80 1015.8
20260904034053 78 177 0.9 5.2 0.00 0.00 0.00 80 1015.7
20260904033553 78 193 0.9 5.2 0.00 0.00 0.00 81 1015.7
20260904033052 78 186 0.9 2.6 0.00 0.00 0.00 82 1015.8
20260904032552 78 177 0.9 3.5 0.00 0.00 0.00 83 1015.8
20260904032052 78 198 0.9 4.3 0.00 0.00 0.00 83 1015.7
20260904031552 78 178 1.7 4.3 0.00 0.00 0.00 84 1015.7
20260904031052 77 196 0.9 3.5 0.00 0.00 0.00 86 1015.5
20260904030652 77 162 0.9 3.5 0.00 0.00 0.00 87 1015.6
20260904030045 76 162 0.9 4.3 0.00 0.00 0.00 88 1015.7
20260904025544 77 166 0.0 2.6 0.00 0.00 0.00 88 1015.6
20260904025044 77 157 0.0 1.7 0.00 0.00 0.00 88 1015.7
20260904024546 77 150 0.0 1.7 0.00 0.00 0.00 88 1015.6
20260904024043 77 153 0.0 0.0 0.00 0.00 0.00 87 1015.7
20260904023543 77 153 0.0 0.0 0.00 0.00 0.00 86 1015.7
20260904023047 78 154 0.0 0.0 0.00 0.00 0.00 86 1015.5
20260904022543 78 153 0.0 0.0 0.00 0.00 0.00 85 1015.5
20260904022044 78 153 0.0 0.0 0.00 0.00 0.00 85 1015.5
20260904021552 78 153 0.0 0.0 0.00 0.00 0.00 84 1015.5
20260904021044 79 153 0.0 0.0 0.00 0.00 0.00 83 1015.5
20260904020643 79 153 0.0 0.0 0.00 0.00 0.00 83 1015.4
20260904020043 79 153 0.0 0.0 0.00 0.00 0.00 82 1015.4
20260904015541 80 153 0.0 0.9 0.00 0.00 0.00 81 1015.2
20260904015041 80 153 0.0 0.0 0.00 0.00 0.00 80 1015.2
20260904014604 80 153 0.0 0.0 0.00 0.00 0.00 80 1015.1
20260904014042 81 154 0.0 0.9 0.00 0.00 0.00 80 1015.1
20260904013545 81 154 0.0 0.9 0.00 0.00 0.00 79 1015.1
20260904013043 81 162 0.0 0.9 0.00 0.00 0.00 78 1015.0
20260904012541 81 87 0.0 1.7 0.00 0.00 0.00 79 1015.0
20260904012040 82 59 0.0 1.7 0.00 0.00 0.00 77 1014.8
20260904011541 82 163 0.0 1.7 0.00 0.00 0.00 77 1014.9
20260904011042 82 152 0.0 1.7 0.00 0.00 0.00 75 1014.6
20260904010640 82 165 0.0 5.2 0.00 0.00 0.00 75 1014.6
20260904010057 81 149 0.9 5.2 0.00 0.00 0.00 76 1014.6
20260904005555 82 123 0.0 1.7 0.00 0.00 0.00 74 1014.5
20260904005056 83 134 0.0 3.5 0.00 0.00 0.00 72 1014.4
20260904004600 83 140 0.9 3.5 0.00 0.00 0.00 72 1014.4
20260904004056 83 119 0.9 2.6 0.00 0.00 0.00 72 1014.3
20260904003555 83 155 0.0 0.9 0.00 0.00 0.00 72 1014.3
20260904003100 84 155 0.0 1.7 0.00 0.00 0.00 71 1014.3
20260904002555 85 155 0.0 1.7 0.00 0.00 0.00 68 1014.2
20260904002058 86 157 0.0 1.7 0.00 0.00 0.00 66 1014.3
20260904001555 87 148 0.9 2.6 0.00 0.00 0.00 65 1014.2
20260904001055 87 157 0.9 2.6 0.00 0.00 0.00 63 1014.2
20260904000656 88 174 0.9 4.3 0.00 0.00 0.00 63 1014.2
20260904000137 89 162 0.0 4.3 0.00 0.00 0.00 60 1014.2
20260903235552 90 130 0.9 4.3 0.00 0.00 0.00 59 1014.1
20260903235052 90 161 1.7 4.3 0.00 0.00 0.00 57 1014.0
20260903234554 90 112 0.9 7.0 0.00 0.00 0.00 58 1014.1
20260903234054 91 98 1.7 7.0 0.00 0.00 0.00 57 1014.2
20260903233551 91 159 0.0 6.1 0.00 0.00 0.00 55 1014.0
20260903233054 92 157 2.6 9.6 0.00 0.00 0.00 55 1014.0
20260903232551 92 278 4.3 9.6 0.00 0.00 0.00 53 1014.0
20260903232055 92 117 1.7 6.1 0.00 0.00 0.00 54 1014.0
20260903231600 92 200 1.7 7.8 0.00 0.00 0.00 55 1014.0
20260903231052 93 180 2.6 9.6 0.00 0.00 0.00 53 1014.0
20260903230652 93 205 4.3 9.6 0.00 0.00 0.00 52 1014.0
20260903225551 93 157 2.6 7.8 0.00 0.00 0.00 52 1014.0
20260903225049 94 242 1.7 8.7 0.00 0.00 0.00 51 1014.0
20260903224554 95 156 3.5 8.7 0.00 0.00 0.00 49 1014.1
20260903224049 95 228 2.6 7.0 0.00 0.00 0.00 49 1014.1
20260903223549 95 239 1.7 7.8 0.00 0.00 0.00 48 1014.1
20260903223148 95 249 3.5 7.8 0.00 0.00 0.00 47 1014.1
20260903222553 94 161 1.7 7.8 0.00 0.00 0.00 50 1014.2
20260903222048 95 82 1.7 7.8 0.00 0.00 0.00 51 1014.0
20260903221551 95 79 1.7 7.8 0.00 0.00 0.00 48 1014.0
20260903221047 96 152 1.7 7.8 0.00 0.00 0.00 45 1014.0
20260903220646 96 182 3.5 7.8 0.00 0.00 0.00 46 1014.0
20260903220056 96 233 3.5 9.6 0.00 0.00 0.00 47 1014.0
20260903215545 95 95 2.6 9.6 0.00 0.00 0.00 47 1014.1
20260903215046 95 206 3.5 9.6 0.00 0.00 0.00 46 1014.0
20260903214551 96 156 3.5 9.6 0.00 0.00 0.00 46 1014.0
20260903214045 96 186 4.3 7.8 0.00 0.00 0.00 46 1014.1
20260903213544 97 157 3.5 7.8 0.00 0.00 0.00 45 1014.2
20260903213048 97 202 1.7 8.7 0.00 0.00 0.00 45 1014.3
20260903212542 96 151 3.5 8.7 0.00 0.00 0.00 45 1014.3
20260903212042 97 92 2.6 13.0 0.00 0.00 0.00 45 1014.3
20260903211544 96 69 3.5 13.0 0.00 0.00 0.00 46 1014.3
20260903211042 96 98 5.2 10.4 0.00 0.00 0.00 48 1014.3
20260903210642 96 159 4.3 9.6 0.00 0.00 0.00 45 1014.4
20260903210049 97 165 4.3 11.3 0.00 0.00 0.00 45 1014.6
20260903205543 97 187 5.2 11.3 0.00 0.00 0.00 44 1014.4
20260903205044 97 130 2.6 9.6 0.00 0.00 0.00 45 1014.3
20260903204545 97 174 3.5 9.6 0.00 0.00 0.00 45 1014.3
20260903204042 97 182 3.5 9.6 0.00 0.00 0.00 44 1014.4
20260903203545 98 152 2.6 9.6 0.00 0.00 0.00 45 1014.4
20260903203044 98 148 3.5 11.3 0.00 0.00 0.00 44 1014.6
20260903202541 98 146 1.7 10.4 0.00 0.00 0.00 45 1014.4
20260903202041 97 187 1.7 7.0 0.00 0.00 0.00 46 1014.5
20260903201540 98 206 2.6 7.8 0.00 0.00 0.00 45 1014.6
20260903201039 98 105 1.7 7.8 0.00 0.00 0.00 45 1014.7
20260903200504 98 207 2.6 8.7 0.00 0.00 0.00 46 1014.8
20260903200002 98 178 4.3 8.7 0.00 0.00 0.00 45 1014.9
20260903195559 99 184 3.5 7.8 0.00 0.00 0.00 43 1014.8
20260903195058 98 144 1.7 10.4 0.00 0.00 0.00 44 1014.9
20260903194558 98 206 4.3 10.4 0.00 0.00 0.00 46 1015.0
20260903194057 96 178 1.7 7.0 0.00 0.00 0.00 45 1015.1
20260903193557 98 174 2.6 7.0 0.00 0.00 0.00 44 1015.2
20260903193058 98 178 4.3 7.0 0.00 0.00 0.00 45 1015.3
20260903192557 98 158 3.5 10.4 0.00 0.00 0.00 43 1015.4
20260903192055 98 213 3.5 10.4 0.00 0.00 0.00 46 1015.3
20260903191557 98 162 3.5 13.0 0.00 0.00 0.00 46 1015.4
20260903191055 97 137 3.5 7.0 0.00 0.00 0.00 47 1015.3
20260903190655 96 23 0.9 7.0 0.00 0.00 0.00 49 1015.5
20260903185555 97 180 1.7 7.8 0.00 0.00 0.00 46 1015.8
20260903185054 98 244 2.6 10.4 0.00 0.00 0.00 44 1015.8
20260903184554 99 180 3.5 10.4 0.00 0.00 0.00 45 1015.7
20260903184053 99 192 3.5 9.6 0.00 0.00 0.00 45 1015.8
20260903183551 98 55 2.6 8.7 0.00 0.00 0.00 47 1015.8
20260903183054 97 179 3.5 9.6 0.00 0.00 0.00 46 1015.8
20260903182552 95 315 1.7 6.1 0.00 0.00 0.00 50 1016.0
20260903182050 95 315 2.6 7.0 0.00 0.00 0.00 49 1016.0
20260903181552 96 213 1.7 7.0 0.00 0.00 0.00 48 1016.0
20260903181051 95 170 0.9 7.0 0.00 0.00 0.00 55 1016.0
20260903180652 93 340 1.7 3.5 0.00 0.00 0.00 51 1016.0
20260903180053 95 148 0.9 4.3 0.00 0.00 0.00 50 1016.1